WORLDVIEW-4 (WV-4)

Last updated on Mon Sep 14 2020 06:43:41 GMT+0100 (British Summer Time)

1 41848U 16067A 20257.87460130 .00000371 00000-0 11511-4 0 9994 2 41848 97.8557 12.4488 0012792 155.2972 204.8888 15.40439606210444
UTC large
Height (km)
Speed (km/s)
/
Latitude / Longitude
Inclination (degrees)
Orbital Period (minutes)
Azimuth
Elevation
Range (km)
Doppler Factor

Next 0 passes for location: London (51.5072 / 0.1276)

Sorry there are no passes over London.